軌道要素
Epoch 2010 Feb. 13.0 TT = JDT 2455240.5
T 2010 Feb. 7.52792 TT MPC
q 3.2460543 (2000.0) P Q
z +0.0006415 Peri. 147.70448 +0.29557262 +0.57372824
+/-0.0000012 Node 123.80607 -0.94714728 +0.07162419
e 0.9979177 Incl. 66.82117 +0.12469507 -0.81590801
From 617 observations 2009 May 18-2010 July 16, mean residual 0".6.
|